KT1D-13 Weather Reports


time (UTC)temp
C
wind
direction
speed
KPH
gust
KPH
rain 1hr
cm
rain 24hr
cm
rain mn
cm
humidity
%
barometer
mb
20260505024517 14 206 8.0 17.7 0.00 0.00 0.00 57 1009.8
20260505023517 15 227 6.4 17.7 0.00 0.00 0.00 56 1009.9
20260505022520 15 224 6.4 16.1 0.00 0.00 0.00 56 1009.9
20260505021517 15 206 6.4 17.7 0.00 0.00 0.00 55 1010.0
20260505020517 15 207 8.0 19.3 0.00 0.00 0.00 54 1009.9
20260505015520 15 206 4.8 14.5 0.00 0.00 0.00 53 1009.9
20260505014518 15 200 6.4 17.7 0.00 0.00 0.00 53 1009.8
20260505013518 15 228 9.7 19.3 0.00 0.00 0.00 52 1009.7
20260505012521 16 193 6.4 12.9 0.00 0.00 0.00 51 1009.6
20260505011521 16 196 6.4 14.5 0.00 0.00 0.00 51 1009.4
20260505010521 16 220 6.4 14.5 0.00 0.00 0.00 50 1009.2
20260505005521 16 214 8.0 12.9 0.00 0.00 0.00 49 1009.0
20260505004521 16 222 4.8 16.1 0.00 0.00 0.00 49 1008.9
20260505003559 17 221 8.0 20.9 0.00 0.00 0.00 49 1008.6
20260505002522 17 213 6.4 14.5 0.00 0.00 0.00 48 1008.4
20260505001522 17 222 6.4 14.5 0.00 0.00 0.00 48 1008.2
20260505000522 17 220 8.0 14.5 0.00 0.00 0.00 47 1007.9
20260504235519 17 198 9.7 19.3 0.00 0.00 0.00 47 1007.7
20260504234516 18 205 11.3 22.5 0.00 0.00 0.00 45 1007.5
20260504233516 18 198 6.4 14.5 0.00 0.00 0.00 44 1007.3
20260504232519 18 234 8.0 19.3 0.00 0.00 0.00 43 1007.2
20260504231520 19 232 9.7 22.5 0.00 0.00 0.00 42 1007.0
20260504230517 19 240 11.3 20.9 0.00 0.00 0.00 41 1006.8
20260504225537 20 226 9.7 17.7 0.00 0.00 0.00 40 1006.5
20260504224537 20 221 8.0 16.1 0.00 0.00 0.00 38 1006.4
20260504223517 21 242 6.4 12.9 0.00 0.00 0.00 35 1006.2
20260504222517 21 201 6.4 14.5 0.00 0.00 0.00 35 1006.2
20260504221518 21 251 8.0 14.5 0.00 0.00 0.00 34 1006.2
20260504220518 21 246 9.7 20.9 0.00 0.00 0.00 35 1006.2
20260504215518 21 225 9.7 19.3 0.00 0.00 0.00 35 1006.3
20260504214518 21 253 9.7 19.3 0.00 0.00 0.00 34 1006.3
20260504213519 21 237 4.8 11.3 0.00 0.00 0.00 35 1006.3
20260504212518 21 247 11.3 22.5 0.00 0.00 0.00 35 1006.3
20260504211519 21 250 8.0 16.1 0.00 0.00 0.00 34 1006.2
20260504210519 21 246 9.7 20.9 0.00 0.00 0.00 34 1006.3
20260504205519 21 238 11.3 27.4 0.00 0.00 0.00 34 1006.3
20260504204519 21 226 8.0 19.3 0.00 0.00 0.00 34 1006.2
20260504203519 21 239 8.0 20.9 0.00 0.00 0.00 34 1006.3
20260504202519 21 236 11.3 29.0 0.00 0.00 0.00 34 1006.3
20260504201600 20 235 6.4 14.5 0.00 0.00 0.00 34 1006.3
20260504200516 21 253 12.9 22.5 0.00 0.00 0.00 34 1006.4
20260504195517 21 228 9.7 19.3 0.00 0.00 0.00 33 1006.4
20260504194520 21 248 9.7 22.5 0.00 0.00 0.00 33 1006.4
20260504193520 21 222 12.9 22.5 0.00 0.00 0.00 33 1006.4
20260504192520 21 233 9.7 16.1 0.00 0.00 0.00 33 1006.4
20260504191517 21 257 14.5 24.1 0.00 0.00 0.00 33 1006.5
20260504190558 20 260 11.3 24.1 0.00 0.00 0.00 33 1006.6
20260504185517 20 261 12.9 24.1 0.00 0.00 0.00 33 1006.6
20260504184601 20 250 6.4 14.5 0.00 0.00 0.00 34 1006.8
20260504183517 20 255 12.9 24.1 0.00 0.00 0.00 34 1006.8
20260504182518 20 251 11.3 24.1 0.00 0.00 0.00 34 1007.0
20260504181518 20 252 11.3 25.7 0.00 0.00 0.00 34 1006.9
20260504180519 20 256 12.9 20.9 0.00 0.00 0.00 34 1006.9
20260504175518 19 257 12.9 27.4 0.00 0.00 0.00 34 1007.0
20260504174519 19 232 11.3 22.5 0.00 0.00 0.00 35 1007.2
20260504173519 19 244 11.3 22.5 0.00 0.00 0.00 35 1007.2
20260504172519 19 257 14.5 30.6 0.00 0.00 0.00 35 1007.3
20260504171536 19 248 12.9 25.7 0.00 0.00 0.00 35 1007.4
20260504170519 18 252 16.1 32.2 0.00 0.00 0.00 35 1007.3
20260504150518 17 237 11.3 22.5 0.00 0.00 0.00 39 1008.6
20260504140519 15 249 11.3 20.9 0.00 0.00 0.00 43 1009.0
20260504130520 13 261 12.9 22.5 0.00 0.00 0.00 46 1009.9
20260504110542 9 252 6.4 11.3 0.00 0.00 0.00 53 1010.0
20260504100519 7 223 1.6 3.2 0.00 0.00 0.00 61 1010.1
20260504081521 8 249 1.6 4.8 0.00 0.00 0.00 56 1009.9
20260504080542 8 269 1.6 3.2 0.00 0.00 0.00 56 1009.9
20260504050525 5 239 1.6 3.2 0.00 0.00 0.00 63 1009.8
20260504045524 4 248 0.0 1.6 0.00 0.00 0.00 64 1009.9
20260504044524 4 316 0.0 1.6 0.00 0.00 0.00 67 1009.9
20260504043525 5 255 1.6 1.6 0.00 0.00 0.00 64 1009.8
20260504042524 4 259 0.0 1.6 0.00 0.00 0.00 65 1009.7
20260504041524 4 347 0.0 1.6 0.00 0.00 0.00 65 1009.8
20260504040525 4 288 0.0 1.6 0.00 0.00 0.00 67 1009.7
20260504035525 4 295 0.0 1.6 0.00 0.00 0.00 66 1009.6
20260504034525 5 3 0.0 0.0 0.00 0.00 0.00 64 1009.5
20260504033545 5 334 0.0 1.6 0.00 0.00 0.00 62 1009.5
20260504032525 5 323 0.0 1.6 0.00 0.00 0.00 61 1009.5
20260504031525 5 343 0.0 1.6 0.00 0.00 0.00 61 1009.5
20260504030526 5 341 0.0 1.6 0.00 0.00 0.00 62 1009.5
20260504025526 4 339 0.0 1.6 0.00 0.00 0.00 63 1009.4